Flag for Norway

Past Weather in Moss, Norway — Yesterday and Last 2 Weeks

Now
59 °F

Mostly cloudy.


Feels Like: 57 °F
Forecast: 58 / 53 °F
Wind: 13 mph from South

Location: Rygge
Current Time: Sep 23, 2020 at 7:14:41 pm
Latest Report: Sep 23, 2020 at 6:50 pm
Visibility: 3 mi
Pressure29.47 "Hg
Humidity: 94%
Dew Point: 57 °F
Location of MossLocation

Past Weather in Moss — Graph

°F

Moss Temperature Yesterday

Maximum temperature yesterday: 59 °F (at 12:20 pm)
Minimum temperature yesterday: 50 °F (at 7:20 am)
Average temperature yesterday: 55 °F

High & Low Weather Summary for the Past Weeks

 TemperatureHumidityPressure
High68 °F (Sep 18, 2:50 pm)100% (Sep 15, 4:50 am)30.48 "Hg (Sep 15, 4:50 am)
Low41 °F (Sep 18, 6:50 am)29% (Sep 16, 5:20 pm)29.47 "Hg (Sep 23, 4:20 pm)
Average56 °F74%29.95 "Hg
* Reported Sep 8 6:20 pm — Sep 23 6:20 pm, Moss. Weather by CustomWeather, © 2020

Note: Actual official high and low records may vary slightly from our data, if they occured in-between our weather recording intervals... More about our weather records

Moss Weather History for the Previous 24 Hours

Scroll right to see more
 ConditionsComfort  
Time TempWeatherWind HumidityBarometerVisibility
6:20 pm
Wed, Sep 23
59 °FDrizzle. Mostly cloudy.12 mph94%29.47 "Hg2 mi
5:50 pm59 °FMostly cloudy.12 mph94%29.47 "Hg3 mi
5:20 pm59 °FDrizzle. Partly sunny.13 mph94%29.47 "Hg2 mi
4:50 pm59 °FLight rain. Partly sunny.13 mph94%29.47 "Hg3 mi
4:20 pm59 °FLight rain. Partly sunny.13 mph94%29.47 "Hg4 mi
3:50 pm59 °FPartly sunny.14 mph94%29.50 "Hg2 mi
3:20 pm59 °FLight rain. Partly sunny.13 mph94%29.50 "Hg3 mi
2:50 pm59 °FLight rain. Low clouds.14 mph94%29.50 "Hg2 mi
2:20 pm59 °FDrizzle. Low clouds.13 mph94%29.50 "Hg2 mi
1:50 pm59 °FLight rain. Low clouds.12 mph94%29.50 "Hg2 mi
1:20 pm59 °FDrizzle. Low clouds.15 mph94%29.50 "Hg3 mi
12:50 pm59 °FMostly cloudy.14 mph94%29.50 "Hg3 mi
12:20 pm59 °FDrizzle. Mostly cloudy.14 mph94%29.50 "Hg3 mi
11:50 am59 °FLight rain. Mostly cloudy.13 mph94%29.50 "Hg2 mi
11:20 am59 °FLight rain. Fog.12 mph94%29.50 "Hg2 mi
10:50 am59 °FRain. Dense fog.14 mph94%29.50 "Hg1 mi
10:20 am59 °FLight rain. Low clouds.13 mph94%29.50 "Hg2 mi
9:50 am59 °FFog.14 mph94%29.50 "Hg2 mi
9:20 am59 °FLight rain. Low clouds.13 mph94%29.50 "Hg3 mi
8:50 am59 °FLow clouds.10 mph94%29.50 "Hg3 mi
8:20 am59 °FLow clouds.13 mph94%29.50 "Hg4 mi
7:50 am59 °FFog.10 mph94%29.50 "Hg2 mi
7:20 am59 °FLow clouds.12 mph94%29.50 "Hg4 mi
6:50 am59 °FLow clouds.12 mph94%29.50 "Hg5 mi
6:20 am59 °FLow clouds.10 mph94%29.50 "Hg5 mi
5:50 am59 °FLow clouds.10 mph94%29.53 "Hg6 mi
5:20 am59 °FLow clouds.12 mph94%29.53 "Hg6 mi
4:50 am59 °FLow clouds.12 mph94%29.53 "Hg6 mi
4:20 am59 °FLow clouds.12 mph94%29.53 "Hg6 mi
3:50 am59 °FLow clouds.13 mph88%29.56 "HgN/A
3:20 am59 °FDrizzle. Mostly cloudy.13 mph88%29.56 "Hg4 mi
2:50 am59 °FMostly cloudy.12 mph88%29.56 "HgN/A
2:20 am59 °FMostly cloudy.12 mph88%29.56 "HgN/A
1:50 am57 °FPassing clouds.15 mph94%29.56 "HgN/A
1:20 am57 °FPassing clouds.12 mph94%29.59 "HgN/A
12:50 am57 °FLow clouds.14 mph94%29.59 "Hg3 mi
12:20 am57 °FDrizzle. Mostly cloudy.15 mph94%29.59 "Hg2 mi
11:50 pm
Tue, Sep 22
59 °FLow clouds.16 mph88%29.59 "Hg4 mi
11:20 pm59 °FPassing clouds.13 mph88%29.59 "Hg2 mi
10:50 pm57 °FPassing clouds.14 mph94%29.62 "Hg6 mi
10:20 pm57 °FPartly cloudy.13 mph88%29.62 "HgN/A
9:50 pm57 °FPassing clouds.15 mph82%29.62 "HgN/A
9:20 pm57 °FClear.16 mph82%29.62 "Hg10 mi
8:20 pm57 °FClear.16 mph77%29.62 "Hg10 mi
7:50 pm57 °FPassing clouds.14 mph77%29.62 "HgN/A
7:20 pm57 °FPassing clouds.15 mph72%29.62 "HgN/A
Weather by CustomWeather, © 2020

See weather overview